Zurück zum Katalog

STARLINK-4328

AktivKommunikationSSO
NORAD 53071·PAYLOAD·🇺🇸 United States

Gestartet Jul 11, 2022 von Vandenberg Space Force Base

Loading…

Nächste Überflüge (nächste 24 Stunden)

TLE

AktuellSource: CelesTrak SupGP

Epoche: Sep 14, 2026, 20:58 UTC

1 53071C 22077AE  26257.87409722  .00065413  00000+0  20312-2 0  2570
2 53071  97.2854  73.7071 0001710  93.7944 229.4600 15.33395499    18

Verfolge STARLINK-4328 in Echtzeit mit AllMySat

Download on the App Store